Location: Kawakawa
(35.3830°S, 174.0670°E)
Time: 14:49:27
(UTC+13:00)

Altair - Pass Details

Date: 14 December 2019
Orbit: 1502 x 1682 km, 47.2° (Epoch: 25 January)

Event Time Altitude Azimuth Distance (km) Brightness Sun altitude
Rises 09:31:56 0° 300° (WNW) 4,723 9.7 39.9°
Reaches altitude 10° 09:34:57 10° 298° (WNW) 3,767 9.2 40.5°
Maximum altitude 09:44:35 77° 212° (SSW) 1,662 8.3 42.5°
Drops below altitude 10° 09:54:41 10° 125° (SE) 3,926 10.4 44.5°
Sets 09:57:54 0° 123° (ESE) 4,931 10.7 45.2°
